Skip Page Navigation
NASA JPL Caltech
NASA Logo - Jet Propulsion Laboratory + View the NASA Portal
+ Near-Earth Object (NEO) Project
Search JPL
JPL Home Earth Solar System Stars & Galaxies Technology
JPL Solar System Dynamics
BODIES ORBITS EPHEMERIDES TOOLS PHYSICAL DATA DISCOVERY FAQ SITE MAP
JPL Small-Body Database Browser
Search: [ help ]  
165347 Philplait (2000 WG11)
Classification: Main-belt Asteroid          SPK-ID: 2165347
Ephemeris | Orbit Diagram | Orbital Elements | Physical Parameters | Discovery Circumstances ]

[ hide orbit diagram ]
Orbit Diagram
Note: Make sure you have Java enabled on your browser to see the applet. This applet is provided as a 3D orbit visualization tool. The applet was implemented using 2-body methods, and hence should not be used for determining accurate long-term trajectories (over several years or decades) or planetary encounter circumstances. For accurate long-term ephemerides, please instead use our Horizons system.
Orbit Viewer

Additional Notes: the orbits shown in the applet are color coded. The planets are white lines, and the asteroid/comet is a blue line. The bright white line indicates the portion of the orbit that is above the ecliptic plane, and the darker portion is below the ecliptic plane. Likewise for the asteroid/comet orbit, the light blue indicates the portion above the ecliptic plane, and the dark blue the portion below the ecliptic plane.

Orbit Viewer applet originally written and kindly provided by Osamu Ajiki (AstroArts), and further modified by Ron Baalke (JPL).


Orbital Elements at Epoch 2455200.5 (2010-Jan-04.0) TDB
Reference: MPO124824 (heliocentric ecliptic J2000)
 Element Value Uncertainty (1-sigma)   Units 
e 0.1392934 n/a  
a 2.3793969 n/a AU
q 2.0479626 n/a AU
i 3.06491 n/a deg
node 58.50717 n/a deg
peri 95.54880 n/a deg
M 93.86351 n/a deg
tp 2454850.9630744
(2009-Jan-19.46307441)
n/a JED
period 1340.5986331
3.67
n/a
n/a
d
yr
n 0.26853675 n/a deg/d
Q 2.7108312 n/a AU
  Orbit Determination Parameters
   # obs. used (total)      75  
   first obs. used      1998-??-??  
   last obs. used      2007-10-13  
   # oppositions      5  
   planetary ephem.      DE403  
   quality code      1  
   fit RMS      0.55  
   data source      MPC:mpu  
   producer      MPC  

Additional Information
 T_jup = 3.524 

Ephemeris | Orbit Diagram | Orbital Elements | Physical Parameters | Discovery Circumstances ]

Physical Parameter Table
Parameter Symbol Value Units Sigma Reference Notes
absolute magnitude H 17.1 mag n/a MPC34972  

165347 Philplait           Discovered 2000 Nov. 23 by J. Medkeff at Junk Bond Observatory.
Phil Plait (b. 1964) is an astronomer, educator and author, currently based in Colorado. Since 1998 Plait has educated the public and debunked astronomy myths and misconceptions through his popular website, books and media appearances.
NOTE: some special characters may not display properly (any characters within {} are an attempt to place the proper accent above a character)
Reference: 20080321/MPCPages.arcLast Updated: 2008-03-26

Alternate Designations
 2000 WG11 = 2002 JE93 = 2004 XJ98 
Ephemeris | Orbit Diagram | Orbital Elements | Physical Parameters | Discovery Circumstances ]
ABOUT SSD CREDITS/AWARDS PRIVACY/COPYRIGHT GLOSSARY LINKS
FirstGov 2009-Nov-23 08:19 UT
(server date/time)  
NASA Home Page
Site Manager:   Donald K. Yeomans
Webmaster  Alan B. Chamberlin